FENGYUN 1C DEB, 30933

Orbit data source: Space-Track

FENGYUN 1C DEB, 30933 is space debris in SSO originally from a launch on Mon, 10 May 1999 UTC launched from the Taiyaun Space Center, China (TSC). Fengyun 1C debris stems from the Chinese weather satellite Fengyun-1C, which was intentionally destroyed by a Chinese anti-satellite missile in 2007. This event dramatically increased the amount of space debris, with thousands of trackable fragments posing hazards to satellites and human spaceflight. The Fengyun 1C debris cloud has become a focal point in discussions about space sustainability and the need for international regulations to prevent the creation of new debris.

Loading next visibility...
Identifier
30933, 1999-025AZX
Orbit
SSO
Country
Flag of CNCN / PRC
Related business
Manufacturer
Unknown
Mission
Spacecraft
Bus & Motor
Unknown
Mass
Unknown
Launch date (UTC)
1999-05-10 (27 years ago)
Launch vehicle
Unknown
Launch site
Taiyaun Space Center, China (TSC)
Object type
Payload
Rocket body
Debris
Shape & HBR
Unknown shape, 0.1 m
Radar Cross Section
Medium (>0.1 m² and <1 m²)

Expand to show TLE details & history
Last TLE update: 8 hours ago

TLE from 8 hours ago
0 FENGYUN 1C DEB
1 30933U 99025AZX 26170.46686796  .00009036  00000-0  27220-2 0  9994
2 30933  99.0535 168.4091 0072737 123.8811  28.3959 14.41244426985864
Epoch: 2026-06-19T11:12Z
TLE epoch observation values (Epoch: 2026-06-19T11:12:17.391Z)
Latitude
26.99516°
Longitude
-82.72796°
Altitude
712.132 km
Speed
7.526 km/s
True Right ascension
23h 32m 09s
True Declination
26° 51' 20"
Sunlit
Object was in daylight at epoch
Visualization orbit readout
Latitude
Unknown
Longitude
Unknown
Altitude
Unknown
Speed
Unknown
Apparent Right ascension
Unknown
Apparent Declination
Unknown
Sunlit
N/A
Visualization observer readout
Local Sidereal Time
06:28:23
Azimuth
Unknown
Elevation
Unknown
Doppler factor
Unknown
Orbital elements
Apogee altitude
803.396 km
Perigee altitude
699.678 km
Semi-major axis
7,129.674 km
Eccentricity
0.00727
Inclination
99.0535°
RAAN
168.4091°
Arg. of periapsis
123.8811°
True anomaly
28.79547°
Mean anomaly
28.3959°
Eccentric anomaly
28.59537°
Mean motion
3.60528 °/min
Orbital period
99.85 mins
BSTAR
0.002722
Loading maneuver chart data...
Computing Atmospheric mass density...

Documentation

Showing up to 5 results
|